User: anonymous   Login
Location: Ostrava
(49.8330°N, 18.2830°E)
Time: 17:17:03
(UTC+02:00)
Language:

Cosmos 1766 - Orbit

View from above orbital plane
View from above orbital plane
View from above satellite
View from above satellite

Ground track
Ground track

The orbit data is extracted from the following two-line orbital elements,

1 16881U 86055A   14297.42995474  .00005086  00000-0  34405-3 0  9993
2 16881 082.5121 247.4731 0014130 133.5754 226.6649 15.06254582535657
Epoch (UTC): 24 October 2014 10:19:08
Eccentricity: 0.0014130
inclination: 82.5121°
perigee height: 538 km
apogee height: 557 km
right ascension of ascending node: 247.4731°
argument of perigee: 133.5754°
revolutions per day: 15.06254582
mean anomaly at epoch: 226.6649°
orbit number at epoch: 53565

The dashed part of the orbit path shows where the satellite is in the earth's shadow,  

DLR